Temp
33 35 34 33 33 35 33 36 29 35 33 41 45 45 47 48 46 45 45 45 46 44 43 42 41 40 40 39 38 38 37 36 36 41 42 41 40 40 40 40 40 40 41 40
24 35 34 31 35 34 35 36 36 37 34 46 47 43 46 47 46 44 45 46 46 45 43 42 40 40 40 39 39 38 36 36 38 41 40 39 39 38 38 38 38 39 39 39
22 31 31 25 34 35 35 37 37 30 42 42 43 46 46 45 45 47 46 46 45 46 44 42 41 41 39 38 38 37 36 37 40 40 38 38 38 37 36 36 37 36 36 36
21 26 16 33 39 39 38 42 40 41 41 45 46 46 47 46 46 46 46 46 45 44 42 40 39 39 38 38 37 37 37 38 39 38 37 37 36 35 35 35 34 33 28 27
23 22 28 35 35 35 34 36 42 40 44 44 45 42 42 46 46 47 46 46 45 43 41 39 38 37 37 36 36 37 38 38 38 38 36 35 34 33 32 28 24 22 21 25
23 21 20 33 38 41 39 30 41 42 42 41 41 36 39 45 46 45 45 44 42 39 39 37 36 36 35 35 35 37 38 38 38 38 36 34 33 33 32 26 22 24 26 25
28 28 28 38 41 42 28 32 42 41 41 41 38 41 45 44 43 43 41 40 39 38 38 37 36 36 34 34 34 38 38 38 37 37 35 34 33 31 31 31 32 25 26 25
29 27 24 41 40 36 40 41 42 41 40 42 43 42 41 42 41 42 41 39 39 36 35 35 36 35 33 33 36 38 38 37 36 35 36 35 33 28 27 25 24 23 24 25
31 31 41 41 42 44 45 44 44 45 44 46 44 42 42 42 43 42 41 41 40 36 35 34 35 36 33 36 38 38 37 36 35 35 35 33 28 27 26 25 24 24 25 24
35 40 40 42 42 44 46 44 47 47 48 49 47 43 42 42 41 41 42 41 40 37 34 33 34 35 36 38 39 38 36 35 34 32 29 28 29 29 27 25 25 27 27 27
34 38 40 43 44 45 44 44 44 45 45 46 46 45 45 43 41 41 41 40 40 38 36 34 34 34 36 39 39 37 36 34 30 29 30 27 28 27 28 27 28 26 26 27
33 41 42 43 42 44 44 43 44 44 43 44 44 44 44 45 44 42 41 39 37 37 36 36 35 35 38 39 38 37 36 32 29 27 27 27 26 26 36 36 38 38 37 31
42 42 42 41 41 41 44 43 44 44 42 41 42 44 44 44 42 42 39 39 38 37 38 37 36 36 38 39 38 35 34 30 28 29 26 25 25 25 26 30 39 38 38 38
43 43 39 40 41 42 45 45 45 41 41 41 40 42 41 42 41 39 39 39 38 38 37 38 37 36 38 40 36 35 31 36 29 28 27 26 25 26 26 26 25 25 34 36
41 40 42 41 40 39 39 40 38 39 39 39 39 39 40 40 40 40 41 38 38 37 37 37 37 37 39 39 36 34 31 30 29 28 28 29 27 27 26 25 25 24 24 30
37 37 38 39 38 38 38 36 36 36 37 37 37 37 37 37 38 39 40 38 37 37 39 37 37 40 39 37 36 35 34 36 33 30 29 29 28 28 27 25 25 25 25 26
36 33 34 33 36 36 36 37 36 36 35 35 35 35 35 36 36 36 38 37 37 38 39 39 38 38 38 38 36 37 35 35 37 31 30 30 30 29 28 27 27 27 28 29
37 37 38 38 37 35 35 37 37 35 35 33 34 34 33 33 34 35 35 36 34 34 35 36 37 37 39 38 37 37 36 34 35 32 32 30 30 30 28 28 29 29 28 27
37 37 38 38 39 38 38 38 38 38 39 36 37 36 36 36 33 33 33 34 33 32 34 35 38 37 36 37 37 36 34 34 34 33 33 34 32 30 30 30 30 29 29 28
36 37 37 36 37 37 36 36 37 37 37 36 35 35 34 34 33 32 32 31 32 33 34 35 35 35 36 36 39 35 34 34 33 33 32 32 32 31 31 32 30 30 29 29
35 35 35 35 34 34 34 35 35 34 34 34 33 32 32 33 33 32 32 31 31 32 34 35 35 34 34 35 37 34 33 33 32 30 29 30 29 31 30 29 30 30 29 29
34 33 34 34 34 33 33 33 32 32 32 31 31 30 30 29 29 31 32 31 32 35 33 32 31 34 33 37 33 33 31 31 31 30 29 29 29 29 29 28 27 27 27 28
33 33 32 32 31 30 30 29 29 30 29 29 28 28 27 27 27 27 28 30 31 33 33 32 34 35 36 34 32 32 31 30 30 30 30 30 30 30 29 29 28 28 27 26
31 31 30 30 30 29 28 26 26 27 27 28 28 27 26 24 25 27 28 30 33 34 31 32 34 36 36 32 32 31 31 30 30 30 30 32 29 29 29 29 28 28 28 28
28 23 22 23 27 27 23 21 22 23 25 25 26 25 26 25 24 25 24 26 30 29 27 31 34 34 29 31 31 31 30 30 30 29 29 29 29 28 28 27 27 28 27 26
25 26 26 26 26 25 24 24 24 24 23 23 24 24 24 24 24 24 24 27 25 28 24 25 26 27 26 26 29 30 30 30 30 30 29 28 28 28 28 27 26 27 28 25
18 25 18 23 23 23 22 22 22 22 24 22 22 23 23 23 23 24 26 22 23 23 23 24 24 26 25 25 25 24 23 28 30 29 27 24 24 27 26 25 25 25 25 25
MSLP
1017.21 1017.12 1017.12 1016.90 1016.80 1016.99 1017.02 1016.72 1016.35 1015.33 1014.32 1013.39 1012.84 1012.77 1012.86 1013.06 1013.60 1014.52 1015.06 1015.64 1016.06 1016.71 1017.35 1018.02 1018.75 1019.28 1019.69 1020.04 1020.38 1020.67 1021.11 1021.39 1021.58 1021.46 1021.63 1021.70 1021.84 1021.79 1021.82 1021.87 1021.87 1021.90 1021.77 1021.65
1017.75 1017.18 1016.98 1016.65 1016.16 1015.97 1015.83 1015.74 1015.44 1014.70 1013.60 1012.40 1012.13 1012.35 1012.64 1012.87 1013.55 1014.08 1014.59 1015.02 1015.57 1016.28 1017.00 1017.68 1018.35 1019.04 1019.59 1020.03 1020.36 1020.67 1021.15 1021.41 1021.34 1021.44 1021.73 1021.79 1022.01 1022.16 1022.21 1022.23 1022.24 1022.21 1022.18 1022.07
1018.24 1017.59 1017.09 1016.47 1014.42 1014.39 1014.23 1013.96 1013.68 1013.85 1011.67 1012.28 1012.03 1011.97 1012.26 1012.61 1013.08 1013.51 1013.94 1014.50 1015.14 1015.73 1016.47 1017.26 1018.04 1018.69 1019.37 1019.92 1020.33 1020.72 1021.00 1021.23 1021.33 1021.59 1021.75 1021.96 1022.27 1022.45 1022.63 1022.69 1022.74 1022.75 1022.87 1022.75
1018.28 1017.95 1016.91 1013.96 1013.11 1013.06 1012.99 1012.58 1012.76 1012.23 1011.72 1011.64 1011.46 1011.56 1011.69 1011.92 1012.41 1013.05 1013.60 1014.17 1014.83 1015.56 1016.40 1017.26 1017.97 1018.78 1019.34 1019.87 1020.29 1020.66 1020.96 1021.16 1021.38 1021.60 1021.72 1022.29 1022.54 1022.63 1022.98 1023.19 1023.31 1023.48 1023.58 1023.27
1017.82 1017.62 1015.41 1013.12 1012.57 1012.56 1012.33 1011.61 1011.27 1011.36 1011.38 1011.18 1011.37 1011.67 1011.61 1011.60 1011.98 1012.48 1013.06 1013.77 1014.46 1015.24 1016.18 1017.14 1017.93 1018.72 1019.39 1019.88 1020.22 1020.61 1020.93 1021.07 1021.34 1021.59 1021.84 1022.37 1022.69 1023.06 1023.24 1023.73 1023.80 1023.99 1024.12 1023.72
1017.09 1016.78 1015.18 1013.09 1011.94 1011.63 1011.67 1011.40 1010.60 1010.65 1010.86 1011.14 1011.52 1011.84 1011.61 1011.60 1012.00 1012.69 1013.18 1013.90 1014.64 1015.51 1016.35 1017.26 1018.11 1018.74 1019.40 1019.88 1020.18 1020.38 1020.71 1021.00 1021.24 1021.44 1022.04 1022.35 1022.72 1023.23 1023.74 1023.84 1023.96 1024.33 1024.19 1024.11
1015.82 1015.56 1013.92 1012.18 1011.64 1011.41 1011.64 1011.30 1010.25 1010.28 1010.50 1010.90 1011.31 1011.55 1011.43 1011.67 1012.38 1012.99 1013.69 1014.32 1015.03 1015.79 1016.51 1017.26 1018.08 1018.73 1019.41 1019.80 1020.04 1020.06 1020.63 1021.00 1021.23 1021.58 1022.02 1022.33 1022.94 1023.56 1023.92 1024.11 1024.25 1024.43 1024.48 1024.44
1014.93 1014.66 1013.27 1011.35 1011.36 1011.27 1010.64 1010.21 1010.08 1010.03 1010.19 1010.66 1011.03 1011.48 1011.78 1012.27 1012.93 1013.48 1013.99 1014.79 1015.47 1016.13 1016.90 1017.45 1018.05 1018.65 1019.25 1019.61 1019.75 1020.01 1020.60 1020.95 1021.28 1021.72 1022.13 1022.59 1023.13 1023.62 1023.89 1024.18 1024.46 1024.60 1024.69 1024.61
1012.91 1012.19 1011.10 1010.83 1010.46 1010.11 1010.07 1010.13 1009.97 1010.01 1010.13 1010.43 1011.04 1011.56 1012.09 1012.58 1013.11 1013.75 1014.27 1014.80 1015.29 1016.10 1016.94 1017.51 1017.98 1018.39 1018.94 1019.27 1019.67 1020.12 1020.52 1020.94 1021.34 1021.77 1022.28 1022.76 1023.18 1023.51 1023.84 1024.12 1024.39 1024.55 1024.61 1024.64
1012.13 1010.92 1010.65 1010.35 1010.22 1010.13 1009.95 1009.93 1009.96 1010.09 1010.29 1010.63 1011.17 1011.76 1012.15 1012.57 1013.36 1014.09 1014.49 1014.82 1015.36 1016.17 1016.84 1017.46 1017.88 1018.24 1018.59 1019.08 1019.52 1019.85 1020.34 1020.85 1021.33 1021.84 1022.37 1022.65 1022.86 1023.09 1023.49 1023.79 1023.89 1024.05 1024.26 1024.24
1011.31 1010.71 1010.38 1009.98 1009.79 1009.69 1009.87 1010.02 1010.17 1010.35 1010.59 1010.88 1011.27 1011.80 1012.24 1012.83 1013.26 1013.81 1014.29 1014.70 1015.34 1015.96 1016.62 1017.25 1017.73 1018.11 1018.46 1018.81 1019.17 1019.62 1020.15 1020.62 1021.13 1021.62 1021.97 1022.40 1022.65 1022.85 1022.98 1022.92 1022.97 1023.15 1023.36 1023.48
1010.42 1009.66 1009.60 1009.55 1009.36 1009.56 1009.98 1010.22 1010.46 1010.68 1010.92 1011.08 1011.32 1011.69 1012.01 1012.41 1012.85 1013.43 1014.06 1014.62 1015.27 1015.82 1016.41 1016.92 1017.40 1017.80 1018.13 1018.45 1018.80 1019.17 1019.72 1020.34 1020.80 1021.30 1021.71 1022.05 1022.32 1022.51 1022.48 1022.52 1022.44 1022.34 1022.43 1022.75
1009.16 1009.16 1009.36 1009.45 1009.60 1009.71 1010.00 1010.33 1010.66 1011.02 1011.27 1011.49 1011.71 1011.89 1012.06 1012.47 1012.78 1013.16 1013.79 1014.35 1014.88 1015.31 1015.89 1016.44 1016.90 1017.26 1017.55 1017.88 1018.37 1018.85 1019.31 1019.88 1020.47 1021.03 1021.36 1021.63 1022.05 1022.26 1022.37 1022.30 1022.10 1022.20 1022.22 1022.33
1009.00 1009.30 1009.86 1009.96 1010.00 1010.13 1010.35 1010.59 1010.87 1011.30 1011.60 1011.84 1012.06 1012.21 1012.38 1012.60 1012.84 1013.17 1013.43 1013.70 1014.28 1014.80 1015.27 1015.71 1016.16 1016.54 1016.83 1017.27 1017.92 1018.47 1018.95 1019.28 1019.91 1020.42 1020.93 1021.19 1021.45 1021.71 1021.87 1021.96 1022.10 1022.06 1022.03 1022.04
1009.50 1009.46 1009.51 1009.79 1010.33 1010.78 1011.07 1011.38 1011.65 1011.95 1012.20 1012.40 1012.46 1012.57 1012.76 1012.93 1012.99 1013.07 1013.19 1013.49 1013.90 1014.34 1014.64 1015.07 1015.45 1015.70 1016.11 1016.52 1017.18 1017.99 1018.52 1018.89 1019.46 1019.97 1020.30 1020.48 1020.81 1021.07 1021.35 1021.57 1021.70 1021.76 1021.91 1021.83
1010.23 1010.30 1010.19 1010.50 1010.94 1011.24 1011.51 1011.88 1012.17 1012.48 1012.68 1012.91 1013.12 1013.09 1013.12 1013.17 1013.16 1013.07 1013.08 1013.42 1013.85 1013.92 1014.11 1014.48 1014.71 1014.91 1015.47 1016.12 1016.62 1017.26 1017.87 1018.28 1018.83 1019.26 1019.55 1019.78 1020.07 1020.39 1020.70 1021.01 1021.23 1021.33 1021.42 1021.40
1010.84 1011.12 1010.93 1011.14 1011.44 1011.70 1011.93 1012.19 1012.48 1012.79 1013.08 1013.27 1013.37 1013.34 1013.41 1013.40 1013.31 1013.31 1013.29 1013.32 1013.46 1013.49 1013.60 1013.86 1014.02 1014.43 1014.84 1015.28 1015.77 1016.18 1016.84 1017.38 1017.60 1018.20 1018.58 1018.90 1019.27 1019.58 1019.83 1020.18 1020.41 1020.56 1020.57 1020.59
1010.89 1010.97 1010.95 1011.09 1011.63 1012.18 1012.60 1012.84 1013.02 1013.08 1013.30 1013.41 1013.48 1013.42 1013.57 1013.60 1013.51 1013.31 1013.24 1013.15 1013.22 1013.33 1013.33 1013.39 1013.56 1013.86 1014.17 1014.51 1014.87 1015.30 1015.79 1016.31 1016.73 1017.08 1017.53 1017.99 1018.35 1018.67 1019.00 1019.28 1019.47 1019.66 1019.74 1019.89
1011.52 1011.67 1011.78 1011.90 1012.15 1012.49 1012.84 1013.13 1013.37 1013.49 1013.58 1013.62 1013.61 1013.68 1013.73 1013.64 1013.56 1013.47 1013.24 1013.19 1013.16 1013.13 1012.86 1012.87 1013.00 1013.35 1013.64 1013.91 1014.34 1014.68 1015.14 1015.56 1015.95 1016.34 1016.74 1017.16 1017.56 1017.85 1018.15 1018.38 1018.59 1018.77 1018.93 1019.09
1012.26 1012.36 1012.50 1012.78 1012.95 1013.11 1013.36 1013.63 1013.79 1013.87 1013.93 1013.93 1013.94 1013.94 1013.89 1013.80 1013.75 1013.67 1013.48 1013.43 1013.28 1013.12 1012.86 1012.77 1012.83 1013.02 1013.16 1013.44 1013.83 1014.19 1014.48 1014.80 1015.18 1015.64 1016.10 1016.42 1016.72 1016.99 1017.27 1017.50 1017.72 1017.90 1018.03 1018.17
1012.78 1012.99 1013.17 1013.36 1013.62 1013.85 1013.98 1014.15 1014.31 1014.42 1014.36 1014.35 1014.45 1014.48 1014.39 1014.14 1013.98 1013.91 1013.73 1013.65 1013.57 1013.34 1013.05 1012.91 1012.88 1012.92 1013.02 1013.20 1013.43 1013.62 1013.91 1014.26 1014.62 1014.95 1015.27 1015.56 1016.00 1016.25 1016.44 1016.67 1017.01 1017.18 1017.25 1017.31
1013.54 1013.69 1013.79 1013.94 1014.17 1014.43 1014.60 1014.71 1014.76 1014.78 1014.92 1014.92 1014.79 1014.72 1014.66 1014.56 1014.45 1014.17 1013.98 1014.00 1013.83 1013.49 1013.31 1013.17 1013.05 1012.94 1012.94 1012.97 1013.18 1013.24 1013.54 1013.79 1014.06 1014.33 1014.56 1014.78 1015.00 1015.28 1015.39 1015.66 1015.95 1016.22 1016.48 1016.61
1014.12 1014.22 1014.31 1014.41 1014.62 1014.84 1015.04 1015.23 1015.30 1015.22 1015.20 1015.25 1015.29 1015.29 1015.25 1015.14 1014.96 1014.71 1014.45 1014.24 1014.01 1013.63 1013.34 1013.17 1013.02 1012.91 1012.86 1012.81 1012.97 1013.09 1013.23 1013.42 1013.60 1013.78 1013.95 1014.12 1014.29 1014.42 1014.56 1014.70 1014.87 1015.12 1015.41 1015.71
1014.52 1014.67 1014.78 1014.92 1015.07 1015.27 1015.44 1015.61 1015.58 1015.59 1015.60 1015.58 1015.60 1015.64 1015.59 1015.39 1015.18 1015.03 1014.96 1014.62 1014.19 1013.74 1013.51 1013.29 1013.00 1012.82 1012.73 1012.73 1012.77 1012.87 1012.97 1013.10 1013.20 1013.28 1013.38 1013.47 1013.64 1013.73 1013.83 1013.98 1014.11 1014.23 1014.43 1014.68
1014.95 1015.11 1015.21 1015.29 1015.44 1015.57 1015.72 1015.98 1015.99 1015.97 1015.89 1015.84 1015.82 1015.80 1015.72 1015.65 1015.66 1015.31 1015.10 1014.79 1014.38 1014.06 1013.84 1013.54 1013.17 1012.93 1012.87 1012.77 1012.70 1012.70 1012.72 1012.79 1012.84 1012.94 1013.00 1013.08 1013.13 1013.23 1013.31 1013.40 1013.46 1013.51 1013.58 1013.67
1015.32 1015.40 1015.48 1015.49 1015.59 1015.75 1015.90 1016.02 1016.09 1016.07 1016.03 1015.99 1015.91 1015.83 1015.75 1015.61 1015.51 1015.35 1015.16 1014.85 1014.65 1014.30 1014.14 1013.83 1013.54 1013.26 1013.12 1012.98 1012.85 1012.72 1012.63 1012.59 1012.53 1012.50 1012.49 1012.55 1012.66 1012.72 1012.74 1012.77 1012.85 1012.91 1012.87 1012.92
1015.49 1015.63 1015.70 1015.78 1015.77 1015.84 1016.00 1016.15 1016.12 1016.03 1015.95 1016.04 1016.07 1015.82 1015.78 1015.68 1015.59 1015.40 1015.20 1015.12 1014.85 1014.57 1014.30 1014.01 1013.76 1013.51 1013.29 1013.11 1012.96 1012.82 1012.67 1012.52 1012.37 1012.26 1012.15 1012.15 1012.23 1012.25 1012.28 1012.30 1012.32 1012.36 1012.36 1012.40
Wind_Speed
5 6 6 6 7 16 21 18 9 5 8 8 6 10 11 8 8 8 7 8 8 8 7 7 7 6 5 5 5 5 5 5 4 4 4 5 5 5 6 6 5 6 6 6
4 4 6 5 7 10 17 15 15 17 9 7 4 4 6 9 9 9 8 9 8 7 8 8 8 7 6 5 5 5 5 5 4 5 5 5 5 6 6 6 6 6 7 7
5 3 3 7 15 15 7 9 11 9 18 2 5 9 10 8 9 10 10 9 9 10 9 8 8 8 7 6 5 5 5 5 5 5 6 6 6 6 5 5 5 6 6 6
3 2 3 9 3 7 17 16 14 12 5 8 8 7 6 8 10 9 8 8 8 7 6 7 6 6 7 6 6 5 5 5 5 5 6 6 6 6 5 3 5 4 4 5
4 4 8 7 2 6 7 7 16 17 14 8 4 2 4 7 6 8 8 6 6 6 6 6 8 8 7 6 6 6 5 5 6 6 6 6 6 5 4 3 3 3 1 5
3 2 5 5 3 4 3 6 4 11 11 8 6 5 5 6 6 5 5 6 7 7 6 8 6 8 8 6 6 6 6 6 6 6 6 6 6 6 2 2 3 2 4 4
5 3 8 8 5 4 3 6 4 4 7 7 6 4 4 6 4 5 5 7 7 8 8 8 8 8 7 6 6 6 6 6 6 6 6 7 6 3 4 3 3 2 3 2
4 4 9 5 3 6 5 3 3 4 4 7 5 4 3 5 6 7 8 7 7 7 6 6 7 8 7 6 5 7 7 6 6 6 6 5 6 4 5 5 4 3 2 1
9 8 4 5 6 3 3 3 2 1 1 6 6 4 5 5 5 4 6 7 6 7 7 5 6 7 7 6 7 7 7 6 6 7 6 5 5 5 3 4 4 3 3 2
4 5 8 6 4 5 5 3 1 2 3 4 3 4 5 5 5 5 5 6 5 6 6 6 6 6 6 8 8 8 8 7 6 7 6 5 4 4 4 4 4 4 4 4
4 5 3 5 7 6 4 3 2 3 3 4 6 5 5 5 6 6 6 5 7 7 7 7 6 6 6 9 10 9 7 6 6 5 6 5 4 4 4 4 5 4 4 4
7 8 6 5 2 5 7 5 5 4 3 2 2 2 3 4 5 6 7 6 6 6 7 8 8 7 8 9 10 9 8 5 6 5 4 4 4 3 6 8 9 9 7 6
5 4 4 2 1 3 6 6 5 4 3 1 2 1 1 2 4 6 6 8 9 10 9 8 9 10 9 10 10 10 11 7 4 6 5 5 4 4 5 3 7 7 7 9
3 7 2 3 4 5 4 5 6 5 3 2 0 1 1 2 2 5 7 8 7 8 9 9 9 10 9 10 9 9 7 14 6 5 5 5 5 5 4 4 4 4 8 10
6 1 3 5 7 5 4 3 4 3 1 2 2 1 2 3 3 5 5 6 6 6 7 8 9 10 10 11 10 9 7 6 6 5 6 7 5 5 4 4 4 4 2 5
3 3 6 5 6 6 5 3 3 1 1 2 3 3 3 4 5 4 3 5 7 9 10 10 11 10 10 10 11 9 9 14 11 6 5 5 5 5 5 5 5 5 4 6
5 2 3 3 6 5 5 3 4 3 0 2 3 4 5 5 5 5 5 5 7 6 7 10 10 8 11 12 12 9 8 8 15 7 7 7 6 7 6 5 6 6 7 6
4 2 4 3 6 5 4 3 2 1 0 2 3 4 5 5 6 6 6 5 5 5 6 7 6 8 10 11 11 8 8 8 8 8 7 7 7 6 6 7 7 7 6 5
6 6 7 7 6 5 4 4 3 3 3 4 4 4 4 4 5 5 6 4 5 5 5 6 10 10 8 9 10 6 7 8 8 7 7 10 7 6 7 7 7 7 6 5
6 6 6 6 6 5 5 4 4 4 4 4 4 4 4 5 5 5 4 4 4 4 3 3 5 6 6 7 15 7 8 8 8 8 7 7 7 7 6 10 8 7 6 6
5 5 6 5 5 5 4 3 2 3 4 5 4 3 4 4 4 4 4 3 4 6 5 4 2 3 3 4 8 6 6 7 8 8 8 8 8 10 8 7 7 6 6 6
3 4 4 4 4 3 3 3 3 3 2 3 4 4 5 5 5 5 1 2 3 9 4 3 2 4 3 7 3 5 6 7 7 6 7 8 8 9 9 9 9 8 8 7
3 2 2 2 2 3 3 3 2 3 3 3 3 4 3 3 3 3 3 5 4 6 3 2 5 6 7 3 3 4 5 6 7 7 7 7 8 8 8 9 8 8 7 7
3 2 2 2 2 2 1 2 3 3 2 2 2 3 3 3 3 1 4 8 10 9 5 5 6 7 6 2 3 4 4 5 5 5 6 10 7 7 7 7 8 7 7 9
2 2 1 2 2 1 1 1 0 1 2 2 2 2 3 1 1 4 4 4 9 7 4 8 10 9 4 3 3 3 4 4 5 5 5 6 6 7 7 7 8 8 7 7
4 3 3 4 2 2 2 1 1 1 1 2 2 2 3 3 3 4 4 6 4 7 4 4 4 4 4 4 4 4 3 4 5 5 6 6 6 6 6 7 7 7 7 6
1 3 0 2 2 3 3 3 3 3 2 2 3 3 3 3 4 4 5 4 4 4 4 4 4 5 4 4 4 4 3 5 7 4 4 3 4 5 5 5 6 5 6 5
Wind_Direction
246 230 187 208 208 206 221 228 218 232 219 249 232 211 209 190 162 164 180 182 185 181 175 169 162 158 152 150 144 138 127 125 130 105 95 92 87 84 76 63 57 49 76 65
292 256 233 259 241 213 217 228 246 252 279 235 290 113 171 182 178 184 196 201 191 177 171 173 168 168 158 154 148 138 138 140 134 113 108 100 92 84 77 65 60 54 48 53
258 345 345 305 239 218 213 209 209 208 238 190 226 206 210 195 187 198 204 195 190 188 183 173 171 162 162 154 139 138 139 147 132 128 117 108 105 93 75 64 64 57 52 59
200 47 279 237 202 212 224 238 216 248 213 206 215 227 219 203 190 206 194 193 190 174 162 157 146 142 135 144 146 148 155 142 141 137 126 121 113 102 92 56 61 61 51 48
163 203 289 287 192 176 177 266 216 224 231 219 143 92 272 199 187 202 191 179 179 160 145 142 149 146 144 150 153 155 156 150 152 146 136 132 116 111 90 83 62 49 33 55
144 190 244 246 308 169 166 293 293 217 226 178 140 203 239 185 164 163 152 150 151 137 120 134 146 145 150 160 162 167 165 159 154 142 146 138 124 118 111 95 115 94 59 43
201 227 277 244 244 160 107 249 326 206 201 164 181 187 210 128 113 133 139 144 129 137 153 160 150 150 158 163 180 156 147 148 145 142 141 134 129 119 145 149 145 93 97 53
155 210 262 188 100 169 219 282 309 331 203 172 165 154 142 144 143 146 144 138 143 137 147 147 152 154 159 173 155 146 153 153 144 141 147 146 155 166 155 151 157 165 167 210
178 207 220 211 213 245 190 226 323 12 97 168 152 183 158 153 141 161 155 147 137 145 148 155 160 163 160 167 161 160 161 161 158 150 154 167 165 167 152 171 176 201 204 220
109 245 241 243 246 249 207 222 106 74 98 110 136 168 173 146 166 180 169 159 142 147 161 175 174 169 166 167 175 167 171 168 162 165 172 177 185 187 183 188 195 203 211 222
263 287 299 259 222 215 193 157 128 102 116 138 145 174 179 192 186 182 172 155 164 173 179 188 174 181 171 182 174 174 175 169 168 178 180 185 199 192 200 218 190 193 214 199
215 213 181 230 204 177 171 180 174 142 114 89 126 182 190 208 181 173 180 163 177 183 179 185 180 182 184 180 179 175 182 178 189 184 187 182 184 215 235 220 221 226 215 194
206 189 169 79 147 174 165 159 146 143 98 113 37 72 168 214 201 195 178 180 190 192 190 179 185 189 187 180 180 181 194 185 186 191 189 179 187 193 197 259 226 223 221 221
152 118 88 192 216 173 137 132 119 101 94 89 342 6 234 221 172 195 202 204 185 180 184 184 188 196 185 181 182 189 186 196 188 190 194 187 191 199 193 192 206 236 248 238
190 58 144 121 110 102 92 111 101 105 62 11 19 347 339 297 254 228 223 194 182 184 192 186 193 203 189 187 178 191 193 201 189 196 194 199 189 189 199 204 217 229 241 257
121 101 119 128 143 138 125 122 130 155 56 28 2 354 338 315 300 298 247 177 172 204 203 198 205 200 184 185 186 193 204 210 200 195 199 198 193 201 202 209 218 222 220 230
122 176 139 151 171 173 180 145 145 143 112 331 314 326 326 315 305 290 262 219 219 224 201 198 209 185 184 186 189 196 200 207 208 195 196 201 202 207 206 202 216 220 231 219
74 51 97 144 158 139 119 106 100 97 49 319 314 330 315 307 285 288 287 276 243 247 220 207 195 187 193 194 196 199 196 198 203 201 198 197 205 203 201 209 216 223 231 225
71 76 69 70 79 97 95 79 50 27 15 6 351 334 311 301 304 296 306 282 254 257 266 212 205 193 198 201 193 196 194 198 202 205 200 206 211 199 209 213 221 222 222 221
78 74 81 82 69 77 92 61 44 35 24 8 354 349 348 351 341 330 321 277 272 263 309 286 216 206 206 197 201 199 201 203 204 208 204 203 205 208 208 218 222 223 220 221
88 92 96 95 92 83 78 64 44 35 13 14 8 352 330 324 348 340 335 342 354 350 344 314 274 241 217 196 208 199 200 204 203 201 202 208 213 222 222 225 233 232 229 225
108 105 107 120 127 112 76 56 42 39 23 7 12 8 356 354 346 336 62 16 331 349 342 339 333 305 247 224 196 203 195 199 204 202 205 206 210 214 219 215 217 220 229 237
134 133 120 121 140 136 99 57 39 44 41 25 15 5 357 329 320 349 343 347 336 324 327 310 315 306 288 254 198 213 205 208 212 212 214 212 218 222 222 220 219 216 215 218
139 136 127 98 127 140 158 42 25 30 17 356 360 355 349 345 335 359 326 329 334 344 341 330 318 305 304 244 213 216 216 218 220 220 220 222 224 225 225 225 225 219 217 221
143 133 95 130 180 227 155 240 348 331 354 341 336 342 343 331 248 309 322 320 338 349 339 341 348 347 345 283 238 228 225 220 222 221 219 222 227 226 229 228 231 230 225 217
188 204 214 212 221 202 201 181 226 267 308 322 311 304 331 334 323 334 326 337 342 343 335 330 330 341 339 327 298 284 261 243 241 243 225 222 226 231 232 232 234 237 237 218
274 205 142 253 236 212 200 212 206 240 229 233 270 279 312 322 317 331 337 334 331 331 331 331 335 336 330 327 324 309 294 281 267 246 240 220 220 231 232 233 234 229 229 228